Tracking 19193 objects as of 24-Jun-2018
HD Live streaming from Space Station
objects crossing your sky now

FENGYUN 1C DEB

Track FENGYUN 1C DEB now!
10-day predictions


NORAD ID: 30728
Int'l Code: 1999-025ASN
Perigee: 751.2 km
Apogee: 896.5 km
Inclination: 98.7 °
Period: 101.2 minutes
Semi major axis: 7194 km
RCS: 0.0095 m2 (small)
Launch date: May 10, 1999
Source: People's Republic of China (PRC)
Launch site: Taiyaun Space Center, China (TSC)

Note: This is SATELLITE DEBRIS
aabbcc
Your satellite tracking list
Your tracking list is empty




NASA's NSSDC Master Catalog

Two Line Element Set (TLE):
1 30728U 99025ASN 18174.30647053 -.00000005 +00000-0 +16405-4 0  9990
2 30728 098.7474 201.7558 0100933 083.9394 336.9902 14.22559075588903
Source of the keplerian elements: AFSPC